Location: Boiro
(42.6475°N, 8.8834°W)
Time: 18:14:51
(UTC+01:00)

A-11 Canister half - Pass Details

Date: 05 December 2021
Orbit: 1516 x 1684 km, 47.2° (Epoch: 26 January)

Event Time Altitude Azimuth Distance (km) Brightness Sun altitude
Rises 09:50:59 0° 258° (WSW) 4,775 11.2 8.2°
Reaches altitude 10° 09:54:03 10° 260° (W) 3,813 10.7 8.7°
Maximum altitude 10:03:51 75° 346° (NNW) 1,695 9.3 10.0°
Drops below altitude 10° 10:13:59 10° 72° (ENE) 3,934 11.6 11.3°
Sets 10:17:12 0° 74° (ENE) 4,933 12.1 11.7°
